Simultaneous Nadir Overpasses (SNOs) Predictions

Prediction of SNOs between LANDSAT-8 and METOP-B Satellite Orbit:

Table of predicted SNOs for the next 14.0 days since TLE Epoch: 9/21/2019
Index Date (LANDSAT-8) Time (LANDSAT-8) Lat,Lon (LANDSAT-8) SZA (LANDSAT-8 ) Date (METOP-B) Time (METOP-B) Lat,Lon (METOP-B) SZA (METOP-B ) Distance(km) Time Diff (sec)
1 09/21/2019 04:50:59 81.18, 148.20 82.67 09/21/2019 04:51:38 81.18, 148.15 82.69 0.79 39
2 09/23/2019 23:35:50 -81.16, 46.63 96.29 09/23/2019 23:35:21 -81.16, 46.59 96.30 0.76 29
3 09/24/2019 00:25:15 81.18,-145.33 83.79 09/24/2019 00:25:59 81.19,-145.20 83.83 2.26 44
4 09/26/2019 19:10:05 -81.18, 113.46 95.11 09/26/2019 19:09:41 -81.18, 113.64 95.10 3.10 24
5 09/26/2019 19:59:31 81.18, -78.88 84.91 09/26/2019 20:00:21 81.18, -78.94 84.93 1.02 50
6 09/29/2019 14:44:20 -81.18, 179.90 94.00 09/29/2019 14:44:02 -81.18, 179.93 94.00 0.75 18
7 09/29/2019 15:33:46 81.18, -12.46 86.02 09/29/2019 15:34:41 81.19, -12.30 86.07 2.77 55
8 10/02/2019 10:18:36 -81.18,-113.69 92.89 10/02/2019 10:18:24 -81.17,-113.79 92.91 1.93 12




NCC Satellite Simultaneous Nadir Overpasses (SNOs) Prediction Service
